User: anonymous   Login
Location: Unspecified
(0.0000°N, 0.0000°E)
Time: 21:55:25
(UTC+00:00)
Language:

SSETI-EXPRESS DEB - Orbit

View from above orbital plane
View from above orbital plane
View from above satellite
View from above satellite

Ground track
Ground track

The orbit data is extracted from the following two-line orbital elements,

1 28897U 05043H   17082.70767344 +.00000228 +00000-0 +52315-4 0  9994
2 28897 097.8515 249.3597 0017139 053.8956 073.9647 14.63793818600100
Epoch (UTC): 23 March 2017 16:59:02
Eccentricity: 0.0017139
inclination: 97.8515°
perigee height: 669 km
apogee height: 693 km
right ascension of ascending node: 249.3597°
argument of perigee: 53.8956°
revolutions per day: 14.63793818
mean anomaly at epoch: 73.9647°
orbit number at epoch: 60010

The dashed part of the orbit path shows where the satellite is in the earth's shadow,  

DLR